South Bend, IN

8:23 PM EST on December 16, 2017 (GMT -0500)
South Bend Regional

Weather History for KSBN - March, 2015

Change the Weather History Date:

Saturday, March 21, 2015

  Actual Average Record
Temperature  
Mean Temperature 39 °F 39 °F  
Max Temperature 50 °F 49 °F 85 °F (2012)
Min Temperature 27 °F 30 °F 10 °F (1965)
Degree Days  
Heating Degree Days 26 26  
Month to date heating degree days 635 619  
Since 1 July heating degree days 5732 5308  
Cooling Degree Days 0 0  
Month to date cooling degree days 0 0  
Year to date cooling degree days 0 0  
Moisture  
Dew Point 32 °F    
Average Humidity 68    
Maximum Humidity 92    
Minimum Humidity 43    
Precipitation  
Precipitation 0.00 in 0.08 in 1.37 in (1948)
Month to date precipitation 0.14 1.60  
Year to date precipitation 4.04 5.84  
Snow  
Snow 0.00 in 0.20 in 5.50 in (1924)
Month to date snowfall 1.4 5.8  
Since 1 July snowfall 79.2 63.9  
Snow Depth 0.00 in    
Sea Level Pressure  
Sea Level Pressure 30.11 in    
Wind  
Wind Speed 12 mph (WNW)    
Max Wind Speed 23 mph    
Max Gust Speed 29 mph    
Visibility 7 miles    
Events      
T = Trace of Precipitation, MM = Missing Value Source: NWS Daily Summary

Daily Weather History Graph

Daily Weather History Graph

Search for Another Location

Airport or City:

Trip Planner

Search our weather history database for the weather conditions in past years. The results will help you decide how hot, cold, wet, or windy it might be!

Date:

Astronomy

Mar. 21, 2015 Rise Set
Actual Time 7:47 AM EDT 7:58 PM EDT
Civil Twilight 7:19 AM EDT 8:26 PM EDT
Nautical Twilight 6:47 AM EDT 8:58 PM EDT
Astronomical Twilight 6:13 AM EDT 9:31 PM EDT
Moon 8:30 AM EDT (3/21) 9:50 PM EDT (3/21)
Length of Visible Light 13h 06m
Length of Day
12h 11m
New Moon, 2% of the Moon is Illuminated
Mar 21
New Moon
Mar 27
First Quarter
Apr 4
Full
Apr 11
Last Quarter
Apr 18
New

Hourly Weather History & Observations

Time (EDT) Temp. Windchill Dew Point Humidity Pressure Visibility Wind Dir Wind Speed Gust Speed Precip Events Conditions
12:54 AM 39.9 °F 32.9 °F 35.1 °F 83% 30.08 in 7.0 mi SW 11.5 mph - N/A   Partly Cloudy
1:01 AM 39.0 °F 31.8 °F 35.1 °F 86% 30.06 in 7.0 mi SW 11.5 mph - N/A   Scattered Clouds
1:10 AM 39.0 °F 30.3 °F 35.1 °F 86% 30.06 in 6.0 mi SW 16.1 mph 21.9 mph N/A   Mostly Cloudy
1:54 AM 39.0 °F 31.4 °F 36.0 °F 89% 30.07 in 5.0 mi SW 12.7 mph 23.0 mph N/A   Overcast
2:54 AM 39.9 °F 31.8 °F 36.0 °F 86% 30.06 in 6.0 mi SW 15.0 mph 24.2 mph N/A   Overcast
3:54 AM 39.9 °F 33.4 °F 36.0 °F 86% 30.05 in 5.0 mi WSW 10.4 mph - N/A   Overcast
4:54 AM 39.9 °F 32.1 °F 37.0 °F 89% 30.02 in 4.0 mi SW 13.8 mph - N/A   Overcast
5:02 AM 39.9 °F 31.8 °F 37.0 °F 89% 30.00 in 4.0 mi SW 15.0 mph 23.0 mph N/A   Overcast
5:54 AM 39.2 °F 31.6 °F 37.4 °F 93% 29.99 in 5.0 mi SW 12.7 mph - N/A   Overcast
6:54 AM 39.9 °F 32.9 °F 37.0 °F 89% 30.01 in 6.0 mi SW 11.5 mph - N/A   Overcast
7:54 AM 39.9 °F 32.1 °F 36.0 °F 86% 30.02 in 5.0 mi SW 13.8 mph - N/A   Overcast
8:54 AM 39.9 °F 34.5 °F 36.0 °F 86% 30.04 in 4.0 mi WSW 8.1 mph - N/A   Overcast
9:54 AM 42.1 °F 36.1 °F 37.0 °F 82% 30.06 in 5.0 mi West 10.4 mph - N/A   Haze
10:01 AM 42.1 °F 36.6 °F 37.0 °F 82% 30.05 in 5.0 mi West 9.2 mph - N/A   Haze
10:54 AM 44.1 °F 37.7 °F 37.0 °F 76% 30.09 in 6.0 mi NNW 12.7 mph - N/A   Haze
11:54 AM 43.0 °F 35.7 °F 37.0 °F 80% 30.12 in 5.0 mi NNW 15.0 mph - N/A   Haze
12:32 PM 46.9 °F - 36.0 °F 66% 30.11 in 10.0 mi North 16.1 mph - N/A   Overcast
12:54 PM 48.0 °F - 35.1 °F 61% 30.14 in 10.0 mi NNW 17.3 mph - N/A   Mostly Cloudy
1:54 PM 48.9 °F - 33.1 °F 54% 30.16 in 10.0 mi North 19.6 mph - N/A   Scattered Clouds
2:54 PM 48.2 °F - 30.2 °F 50% 30.15 in 10.0 mi NNW 19.6 mph 26.5 mph N/A   Clear
3:54 PM 48.0 °F - 28.9 °F 48% 30.16 in 10.0 mi North 16.1 mph - N/A   Clear
4:54 PM 46.9 °F - 28.0 °F 48% 30.17 in 10.0 mi NNW 17.3 mph 24.2 mph N/A   Clear
5:54 PM 46.9 °F - 26.1 °F 44% 30.19 in 10.0 mi NNW 17.3 mph - N/A   Clear
6:54 PM 43.0 °F 35.4 °F 21.9 °F 43% 30.18 in 10.0 mi North 16.1 mph - N/A   Clear
7:54 PM 39.0 °F 31.4 °F 21.0 °F 49% 30.19 in 10.0 mi North 12.7 mph - N/A   Clear
8:54 PM 35.1 °F 29.3 °F 19.9 °F 54% 30.22 in 10.0 mi NNW 6.9 mph - N/A   Clear
9:54 PM 34.0 °F 31.0 °F 19.0 °F 54% 30.24 in 10.0 mi North 3.5 mph - N/A   Clear
10:54 PM 30.9 °F 27.5 °F 19.0 °F 61% 30.25 in 10.0 mi West 3.5 mph - N/A   Clear
11:54 PM 28.0 °F 22.8 °F 19.0 °F 69% 30.26 in 10.0 mi NW 4.6 mph - N/A   Clear